Wormit, United Kingdom

4:11 AM GMT on January 18, 2017 (GMT +0000)
Dundee

Weather History for EGPN - May, 2013

Change the Weather History Date:

Sunday, May 19, 2013

  Actual Average Record
Temperature  
Mean Temperature 54 °F -  
Max Temperature 59 °F 59 °F 62 °F (2004)
Min Temperature 50 °F 50 °F 42 °F (2008)
Degree Days  
Heating Degree Days 10    
Growing Degree Days 4 (Base 50)    
Moisture  
Dew Point 52 °F    
Average Humidity 94    
Maximum Humidity 100    
Minimum Humidity 88    
Precipitation  
Precipitation 0.00 in - - ()
Sea Level Pressure  
Sea Level Pressure 29.95 in    
Wind  
Wind Speed 3 mph ()    
Max Wind Speed 5 mph    
Max Gust Speed -    
Visibility 3.7 miles    
Events      
Averages and records for this station are not official NWS values.
T = Trace of Precipitation, MM = Missing Value Source: Averaged Metar Reports

Daily Weather History Graph

Daily Weather History Graph

Search for Another Location

Airport or City:

Trip Planner

Search our weather history database for the weather conditions in past years. The results will help you decide how hot, cold, wet, or windy it might be!

Date:

Astronomy

May. 19, 2013 Rise Set
Actual Time 4:49 AM BST 9:28 PM BST
Civil Twilight 3:56 AM BST 10:22 PM BST
Nautical Twilight 2:27 AM BST 11:54 PM BST
Astronomical Twilight Sun does not rise Sun does not rise
Moon 2:09 PM BST (5/19) 2:19 AM BST (5/19)
Length of Visible Light 18h 25m
Length of Day
16h 39m
Waxing Gibbous, 63% of the Moon is Illuminated
May 19
Waxing Gibbous
May 25
Full
May 31
Last Quarter
Jun 8
New
Jun 16
First Quarter

Hourly Weather History & Observations

Time (BST) Temp. Dew Point Humidity Pressure Visibility Wind Dir Wind Speed Gust Speed Precip Events Conditions
9:20 AM 50.0 °F 50.0 °F 100% 29.92 in 1.6 mi SSE 4.6 mph - N/A   Light Drizzle
9:50 AM 50.0 °F 50.0 °F 100% 29.92 in 1.6 mi SSE 3.5 mph - N/A   Light Drizzle
10:20 AM 50.0 °F 50.0 °F 100% 29.92 in 1.6 mi East 3.5 mph - N/A   Light Drizzle
10:50 AM 50.0 °F 50.0 °F 100% 29.95 in 1.6 mi ESE 3.5 mph - N/A   Light Drizzle
11:20 AM 50.0 °F 50.0 °F 100% 29.95 in 1.6 mi East 3.5 mph - N/A   Light Drizzle
11:50 AM 50.0 °F 50.0 °F 100% 29.95 in 1.6 mi East 1.2 mph - N/A   Light Drizzle
12:50 PM 51.8 °F 50.0 °F 94% 29.95 in 1.6 mi SSE 1.2 mph - N/A   Light Drizzle
1:20 PM 51.8 °F 51.8 °F 100% 29.95 in 1.6 mi WSW 1.2 mph - N/A   Light Drizzle
1:50 PM 51.8 °F 51.8 °F 100% 29.95 in 1.6 mi SW 1.2 mph - N/A   Light Drizzle
2:20 PM 53.6 °F 51.8 °F 94% 29.95 in 2.2 mi WSW 2.3 mph - N/A   Mostly Cloudy
2:50 PM 53.6 °F 51.8 °F 94% 29.95 in 2.2 mi WSW 2.3 mph - N/A   Mostly Cloudy
3:20 PM 53.6 °F 53.6 °F 100% 29.95 in 2.8 mi SW 3.5 mph - N/A   Overcast
3:50 PM 55.4 °F 53.6 °F 94% 29.95 in 2.8 mi WSW 3.5 mph - N/A   Overcast
4:20 PM 57.2 °F 53.6 °F 88% 29.95 in 3.7 mi WSW 2.3 mph - N/A   Overcast
4:50 PM 57.2 °F 53.6 °F 88% 29.95 in 4.3 mi SSW 3.5 mph - N/A   Mostly Cloudy
5:20 PM 59.0 °F 55.4 °F 88% 29.95 in 6.2 mi SW 3.5 mph - N/A   Mostly Cloudy
5:50 PM 57.2 °F 55.4 °F 94% 29.95 in 6.2 mi SW 1.2 mph - N/A   Mostly Cloudy
6:20 PM 57.2 °F 53.6 °F 88% 29.95 in 6.2 mi Calm Calm - N/A   Mostly Cloudy
6:50 PM 59.0 °F 55.4 °F 88% 29.95 in 6.2 mi Calm Calm - N/A   Mostly Cloudy
7:20 PM 57.2 °F 53.6 °F 88% 29.95 in 6.2 mi East 2.3 mph - N/A   Mostly Cloudy
7:50 PM 55.4 °F 53.6 °F 94% 29.95 in 6.2 mi East 2.3 mph - N/A   Mostly Cloudy
8:20 PM 55.4 °F 53.6 °F 94% 29.95 in 6.2 mi East 2.3 mph - N/A   Mostly Cloudy
9:20 PM 55.4 °F 51.8 °F 88% 29.95 in 6.2 mi ENE 4.6 mph - N/A   Mostly Cloudy
9:50 PM 53.6 °F 51.8 °F 94% 29.98 in 6.2 mi East 4.6 mph - N/A   Mostly Cloudy